English version Home page |
Updated on November 13, 2016 |
|
軌道要素Epoch 2016 Apr. 2.0 TT = JDT 2457480.5 T 2016 Apr. 11.93310 TT MPCW q 1.5183548 (2000.0) P Q z +0.0017213 Peri. 318.47231 -0.69791147 -0.71143889 +/-0.0006460 Node 186.19926 -0.26463472 +0.14938457 e 0.9973865 Incl. 130.34250 -0.66549834 +0.68668694 From 65 observations 2016 May 6-June 5, mean residual 0".6.
|
星図
|
光度変化m1 = 15.0 + 5 logΔ + 10.0 log r
|
軌道要素はM.P.E.C. 2016-Q04に掲載されたものです。
|